Location: Fort Worth, Tx
(32.7431°N, 97.3695°W)
Time: 07:01:52
(UTC-05:00)

Explorer 11/Cluster Stage 4 - Pass Details

Date: 07 February 2026
Orbit: 463 x 1176 km, 28.8° (Epoch: 5 March)

Event Time Altitude Azimuth Distance (km) Brightness Sun altitude
Rises 21:00:18 0° 262° (W) 2,936 10.9 -24.0°
Reaches altitude 10° 21:02:29 10° 258° (WSW) 2,125 9.8 -24.5°
Maximum altitude 21:07:25 58° 180° (S) 915 6.8 -25.5°
Enters shadow 21:08:00 55° 153° (SSE) 957 6.7 -25.6°
